When you browse on this site, cookies collect data to enhance your experience and personalize the content and advertising you see.
Visit our Privacy Policy to learn more. By continuing to use the site, you agree to this use of cookies and data.
  • In Österreich
  • Länderverzeichnis
  • Für 7 Tage
  • Wassertemperatur
  • Satellitenkarten
  • Wetterkarte
  • News
  • Widgets
  • user-avatar
    Anmelden

    Stündliche Wetter Lipovec

    Heute, 18 Juli, Donnerstag

    Zeit Temperatur Niederschläge Wind Luftdruck Luftfeuchtigkeit
    00:00 +12°C° 0 mm 3 m/S 734 mmHg 94%
    01:00 +11°C° 0 mm 3 m/S 734 mmHg 94%
    02:00 +10°C° 0 mm 3 m/S 734 mmHg 95%
    03:00 +10°C° 0 mm 3 m/S 735 mmHg 96%
    04:00 +10°C° 0 mm 3 m/S 735 mmHg 96%
    05:00 +10°C° 0 mm 3 m/S 735 mmHg 97%
    06:00 +12°C° 0 mm 3 m/S 735 mmHg 91%
    07:00 +13°C° 0 mm 3 m/S 735 mmHg 85%
    08:00 +16°C° 0 mm 3 m/S 736 mmHg 80%
    09:00 +17°C° 0 mm 4 m/S 736 mmHg 74%
    10:00 +19°C° 0 mm 4 m/S 736 mmHg 68%
    11:00 +20°C° 0 mm 4 m/S 736 mmHg 62%
    12:00 +20°C° 0.1 mm 5 m/S 736 mmHg 62%
    13:00 +21°C° 0.1 mm 5 m/S 736 mmHg 62%
    14:00 +21°C° 0.1 mm 5 m/S 736 mmHg 61%
    15:00 +21°C° 0.2 mm 5 m/S 736 mmHg 64%
    16:00 +20°C° 0.2 mm 4 m/S 736 mmHg 67%
    17:00 +20°C° 0.2 mm 4 m/S 737 mmHg 71%
    18:00 +19°C° 0 mm 4 m/S 737 mmHg 76%
    19:00 +18°C° 0 mm 3 m/S 737 mmHg 82%
    20:00 +16°C° 0 mm 3 m/S 737 mmHg 87%
    21:00 +16°C° 0 mm 2 m/S 737 mmHg 89%
    22:00 +15°C° 0 mm 2 m/S 737 mmHg 91%
    23:00 +14°C° 0 mm 2 m/S 738 mmHg 93%

    Morgen, 19 Juli, Freitag

    Zeit Temperatur Niederschläge Wind Luftdruck Luftfeuchtigkeit
    00:00 +14°C° 0 mm 2 m/S 738 mmHg 93%
    01:00 +14°C° 0 mm 2 m/S 738 mmHg 93%
    02:00 +13°C° 0 mm 2 m/S 738 mmHg 94%
    03:00 +13°C° 0 mm 2 m/S 738 mmHg 94%
    04:00 +13°C° 0 mm 2 m/S 738 mmHg 94%
    05:00 +13°C° 0 mm 2 m/S 738 mmHg 94%
    06:00 +15°C° 0 mm 2 m/S 739 mmHg 87%
    07:00 +17°C° 0 mm 2 m/S 739 mmHg 81%
    08:00 +19°C° 0 mm 3 m/S 740 mmHg 75%
    09:00 +20°C° 0 mm 3 m/S 740 mmHg 69%
    10:00 +21°C° 0 mm 3 m/S 740 mmHg 63%
    11:00 +24°C° 0 mm 3 m/S 740 mmHg 57%
    12:00 +24°C° 0 mm 2 m/S 740 mmHg 55%
    13:00 +25°C° 0 mm 2 m/S 740 mmHg 53%
    14:00 +25°C° 0 mm 2 m/S 740 mmHg 51%
    15:00 +25°C° 0 mm 2 m/S 740 mmHg 53%
    16:00 +25°C° 0 mm 2 m/S 740 mmHg 56%
    17:00 +25°C° 0 mm 2 m/S 740 mmHg 58%
    18:00 +23°C° 0.1 mm 2 m/S 740 mmHg 64%
    19:00 +20°C° 0.1 mm 2 m/S 740 mmHg 70%
    20:00 +19°C° 0.1 mm 2 m/S 740 mmHg 76%
    21:00 +19°C° 0 mm 1 m/S 740 mmHg 78%
    22:00 +18°C° 0 mm 1 m/S 740 mmHg 80%
    23:00 +15°C° 0 mm 0 m/S 740 mmHg 83%

    übermorgen, 20 Juli, Samstag

    Zeit Temperatur Niederschläge Wind Luftdruck Luftfeuchtigkeit
    00:00 +15°C° 0 mm 0 m/S 740 mmHg 83%
    01:00 +16°C° 0 mm 1 m/S 740 mmHg 84%
    02:00 +16°C° 0 mm 1 m/S 740 mmHg 85%
    03:00 +16°C° 0 mm 1 m/S 740 mmHg 85%
    04:00 +16°C° 0 mm 1 m/S 741 mmHg 85%
    05:00 +15°C° 0 mm 0 m/S 741 mmHg 85%
    06:00 +16°C° 0.3 mm 0 m/S 741 mmHg 81%
    07:00 +18°C° 0.3 mm 0 m/S 741 mmHg 77%
    08:00 +19°C° 0.3 mm 0 m/S 741 mmHg 74%
    09:00 +23°C° 0.9 mm 1 m/S 742 mmHg 70%
    10:00 +24°C° 0.9 mm 1 m/S 742 mmHg 66%
    11:00 +25°C° 0.9 mm 1 m/S 742 mmHg 62%
    12:00 +26°C° 1.1 mm 1 m/S 742 mmHg 61%
    13:00 +26°C° 1.1 mm 2 m/S 742 mmHg 61%
    14:00 +26°C° 1.1 mm 2 m/S 742 mmHg 60%
    15:00 +26°C° 0.4 mm 2 m/S 742 mmHg 61%
    16:00 +26°C° 0.4 mm 2 m/S 742 mmHg 62%
    17:00 +26°C° 0.4 mm 2 m/S 742 mmHg 63%
    18:00 +24°C° 0 mm 2 m/S 742 mmHg 68%
    19:00 +23°C° 0 mm 2 m/S 742 mmHg 72%
    20:00 +20°C° 0 mm 2 m/S 742 mmHg 76%
    21:00 +19°C° 0 mm 2 m/S 742 mmHg 77%
    22:00 +18°C° 0 mm 2 m/S 742 mmHg 78%
    23:00 +18°C° 0 mm 2 m/S 742 mmHg 79%

    21 Juli, Sonntag

    Zeit Temperatur Niederschläge Wind Luftdruck Luftfeuchtigkeit
    00:00 +18°C° 0 mm 1 m/S 742 mmHg 80%
    01:00 +18°C° 0 mm 1 m/S 742 mmHg 81%
    02:00 +18°C° 0 mm 1 m/S 742 mmHg 82%
    03:00 +18°C° 0 mm 1 m/S 742 mmHg 83%
    04:00 +18°C° 0 mm 1 m/S 742 mmHg 83%
    05:00 +18°C° 0 mm 1 m/S 742 mmHg 83%
    06:00 +19°C° 0 mm 1 m/S 742 mmHg 79%
    07:00 +21°C° 0 mm 1 m/S 742 mmHg 74%
    08:00 +23°C° 0 mm 1 m/S 743 mmHg 69%
    09:00 +24°C° 0 mm 1 m/S 743 mmHg 65%
    10:00 +26°C° 0 mm 1 m/S 743 mmHg 61%
    11:00 +25°C° 0 mm 0 m/S 743 mmHg 56%
    12:00 +25°C° 0.1 mm 0 m/S 743 mmHg 56%
    13:00 +26°C° 0.1 mm 0 m/S 743 mmHg 55%
    14:00 +28°C° 0.1 mm 1 m/S 742 mmHg 54%
    15:00 +28°C° 0.3 mm 1 m/S 742 mmHg 56%
    16:00 +25°C° 0.3 mm 0 m/S 742 mmHg 58%
    17:00 +25°C° 0.3 mm 0 m/S 742 mmHg 60%
    18:00 +26°C° 0.2 mm 1 m/S 742 mmHg 65%
    19:00 +24°C° 0.2 mm 1 m/S 742 mmHg 70%
    20:00 +23°C° 0.2 mm 1 m/S 741 mmHg 76%
    21:00 +21°C° 0.1 mm 2 m/S 741 mmHg 77%
    22:00 +20°C° 0.1 mm 2 m/S 741 mmHg 79%
    23:00 +20°C° 0.1 mm 2 m/S 742 mmHg 81%

    22 Juli, Montag

    Zeit Temperatur Niederschläge Wind Luftdruck Luftfeuchtigkeit
    00:00 +19°C° 0.1 mm 2 m/S 741 mmHg 83%
    01:00 +19°C° 0.1 mm 2 m/S 741 mmHg 84%
    02:00 +19°C° 0.1 mm 3 m/S 741 mmHg 86%
    03:00 +18°C° 0.2 mm 3 m/S 741 mmHg 87%
    04:00 +18°C° 0.2 mm 3 m/S 740 mmHg 89%
    05:00 +18°C° 0.2 mm 3 m/S 740 mmHg 90%
    06:00 +20°C° 0.3 mm 3 m/S 740 mmHg 88%
    07:00 +21°C° 0.3 mm 3 m/S 740 mmHg 86%
    08:00 +22°C° 0.3 mm 3 m/S 741 mmHg 84%
    09:00 +25°C° 0 mm 3 m/S 741 mmHg 78%
    10:00 +26°C° 0 mm 4 m/S 741 mmHg 71%
    11:00 +27°C° 0 mm 4 m/S 741 mmHg 65%
    12:00 +28°C° 0.6 mm 4 m/S 740 mmHg 64%
    13:00 +28°C° 0.6 mm 4 m/S 740 mmHg 63%
    14:00 +28°C° 0.6 mm 5 m/S 740 mmHg 61%
    15:00 +27°C° 0.3 mm 5 m/S 740 mmHg 66%
    16:00 +26°C° 0.3 mm 5 m/S 740 mmHg 70%
    17:00 +26°C° 0.3 mm 5 m/S 740 mmHg 74%
    18:00 +23°C° 0.3 mm 4 m/S 740 mmHg 79%
    19:00 +22°C° 0.3 mm 4 m/S 740 mmHg 83%
    20:00 +21°C° 0.3 mm 3 m/S 740 mmHg 87%
    21:00 +20°C° 0 mm 3 m/S 740 mmHg 88%
    22:00 +20°C° 0 mm 3 m/S 740 mmHg 89%
    23:00 +19°C° 0 mm 3 m/S 740 mmHg 89%

    23 Juli, Dienstag

    Zeit Temperatur Niederschläge Wind Luftdruck Luftfeuchtigkeit
    00:00 +18°C° 0 mm 3 m/S 739 mmHg 90%
    01:00 +18°C° 0 mm 3 m/S 739 mmHg 92%
    02:00 +18°C° 0 mm 3 m/S 739 mmHg 93%
    03:00 +17°C° 0 mm 3 m/S 739 mmHg 93%
    04:00 +17°C° 0 mm 3 m/S 739 mmHg 93%
    05:00 +17°C° 0 mm 3 m/S 739 mmHg 93%
    06:00 +18°C° 0.1 mm 3 m/S 739 mmHg 90%
    07:00 +19°C° 0.1 mm 4 m/S 739 mmHg 86%
    08:00 +20°C° 0.1 mm 4 m/S 739 mmHg 82%
    09:00 +21°C° 0.3 mm 5 m/S 739 mmHg 77%
    10:00 +22°C° 0.3 mm 5 m/S 739 mmHg 72%
    11:00 +23°C° 0.3 mm 5 m/S 739 mmHg 67%
    12:00 +25°C° 0.2 mm 5 m/S 738 mmHg 66%
    13:00 +24°C° 0.2 mm 6 m/S 738 mmHg 64%
    14:00 +24°C° 0.2 mm 6 m/S 738 mmHg 63%
    15:00 +24°C° 0.2 mm 6 m/S 738 mmHg 65%
    16:00 +23°C° 0.2 mm 6 m/S 738 mmHg 68%
    17:00 +23°C° 0.2 mm 6 m/S 738 mmHg 70%
    18:00 +21°C° 0.1 mm 5 m/S 738 mmHg 76%
    19:00 +20°C° 0.1 mm 4 m/S 738 mmHg 81%
    20:00 +19°C° 0.1 mm 3 m/S 737 mmHg 87%
    21:00 +18°C° 0 mm 3 m/S 737 mmHg 89%
    22:00 +17°C° 0 mm 4 m/S 737 mmHg 91%
    23:00 +17°C° 0 mm 4 m/S 737 mmHg 93%
    Mehr zeigen